Theta_e
359 358 358 357 356 355 353 353 353 352 351 351 350 350 349 347 346 345 344 346 349 351 353 355 356 357 356 357 359 358 357 357 356 356 357 357 356 354 351 352 352 351
359 358 358 357 357 356 355 353 352 351 351 351 350 349 349 347 345 345 345 346 348 349 350 352 354 355 354 356 359 359 357 358 357 354 357 357 356 354 352 351 350 351
359 358 357 356 356 356 356 354 353 352 351 350 351 350 348 347 345 345 344 346 348 348 348 350 351 352 352 354 358 358 357 358 357 353 354 356 355 354 352 351 349 348
358 357 356 355 355 355 354 354 354 353 351 351 350 349 349 348 346 345 344 346 347 348 349 349 350 350 349 351 355 357 355 354 355 353 353 356 355 354 351 350 348 347
356 356 355 355 355 355 354 354 354 354 352 351 350 349 349 348 348 346 345 346 347 348 349 350 351 351 349 350 352 355 353 352 352 353 353 355 353 353 351 350 349 348
354 355 356 356 356 355 355 353 354 353 352 351 351 350 350 350 350 349 346 346 347 347 348 349 350 351 350 351 352 353 352 350 349 350 352 355 353 351 351 351 350 350
353 354 355 356 356 355 355 354 353 353 352 352 351 350 350 349 350 351 349 348 347 347 348 347 350 351 351 351 351 352 352 350 349 351 353 356 354 353 353 352 351 352
353 354 354 355 355 354 355 353 351 352 354 354 352 351 350 349 350 351 351 350 349 348 348 348 349 351 353 351 350 351 352 351 350 351 353 356 356 355 355 355 353 353
353 354 354 355 355 354 354 352 351 352 355 355 354 352 351 350 350 351 351 351 351 349 349 349 349 351 352 352 350 351 352 351 350 350 352 355 355 355 356 356 356 355
353 354 353 355 355 353 352 352 352 353 354 354 354 353 351 350 349 350 351 351 351 352 351 350 350 350 352 351 351 352 352 352 352 352 353 354 354 354 354 356 357 356
354 354 354 355 355 353 352 352 352 353 352 353 352 352 352 352 351 351 352 350 351 352 352 351 351 351 351 351 351 351 352 352 352 352 353 354 353 354 354 354 355 355
354 355 354 355 356 354 353 351 351 351 351 352 353 352 352 352 352 352 353 351 350 351 352 352 352 351 351 351 351 351 351 352 352 352 352 352 352 352 353 353 353 353
354 354 354 354 354 353 352 351 350 350 352 353 353 354 353 353 353 353 354 352 351 350 351 352 352 352 351 352 351 351 351 352 352 351 351 351 351 351 351 352 353 353
354 355 356 354 352 352 353 352 350 350 352 353 354 354 355 354 354 354 353 353 352 352 351 352 352 352 353 353 352 352 351 351 351 351 351 351 351 351 351 351 353 354
354 355 356 353 351 353 355 354 351 351 351 352 354 355 355 354 354 353 352 352 352 352 352 351 351 351 353 353 353 353 352 350 350 351 351 350 351 351 352 352 352 354
355 354 355 353 352 354 355 355 354 353 353 353 354 355 354 354 354 353 352 352 352 352 352 351 350 350 351 352 352 352 352 350 350 350 350 351 350 351 352 353 353 353
354 353 354 355 355 355 355 355 354 354 354 354 355 354 354 354 353 353 352 352 352 352 351 351 350 349 350 351 351 351 351 351 350 350 350 350 350 351 351 352 351 352
355 356 357 356 356 356 355 356 355 355 355 355 354 353 353 353 353 352 352 352 352 351 351 351 351 350 349 349 350 349 349 349 349 349 350 350 351 353 353 351 350 352
357 357 357 355 354 353 354 355 355 354 355 355 354 354 353 353 353 352 352 352 352 352 351 351 351 351 349 348 349 348 347 347 347 349 351 352 353 356 356 354 352 352
353 352 353 354 353 352 354 354 354 354 354 354 354 353 352 352 352 351 351 352 352 351 351 351 352 351 350 348 348 348 348 348 348 349 351 352 353 355 355 354 353 352
350 347 350 353 352 352 353 353 353 354 353 352 352 352 351 351 351 350 351 351 352 352 352 352 353 352 351 350 349 349 349 348 348 348 350 351 352 353 352 353 353 352
351 347 348 350 350 351 351 352 353 353 351 351 351 351 351 352 351 351 352 352 352 353 353 354 353 353 352 351 350 349 349 349 348 349 351 351 352 353 353 354 354 353
353 351 351 351 351 351 352 352 352 353 352 352 352 352 352 352 353 352 352 352 353 353 353 354 353 352 352 351 350 349 349 350 350 350 352 352 352 353 353 354 354 353
354 353 353 353 353 352 352 353 352 352 353 353 352 353 353 353 353 352 352 352 351 351 352 352 351 351 351 350 349 348 349 350 351 351 352 353 353 352 352 352 352 352
352 352 352 352 352 352 352 353 352 352 352 351 352 353 352 352 351 351 351 350 350 350 350 350 350 351 350 349 348 348 348 349 349 350 351 351 351 351 350 350 350 350
351 352 352 352 352 353 352 352 351 351 351 350 351 351 351 350 350 350 350 350 350 350 349 349 350 351 350 348 347 347 348 348 348 349 350 350 350 349 348 349 348 348
Wind_Speed
13 12 12 12 12 12 11 11 11 12 12 12 12 13 14 14 13 13 13 13 14 16 16 15 14 13 12 11 11 11 11 10 11 10 9 10 10 11 11 10 10 10
14 12 11 11 11 11 12 12 11 11 11 12 12 11 12 13 13 13 13 13 13 15 15 15 15 15 14 12 12 13 12 11 12 11 10 11 11 11 11 11 11 11
15 14 13 12 12 11 12 12 11 11 11 11 11 11 11 12 12 13 14 13 13 14 15 15 15 16 16 15 13 13 13 12 12 12 11 11 11 11 11 11 12 12
15 14 14 13 13 12 12 11 11 11 11 11 11 11 12 11 11 12 14 14 14 14 14 15 15 15 16 17 15 14 14 13 13 13 12 11 11 12 12 12 12 12
13 12 13 13 12 12 12 11 11 10 11 11 11 12 12 12 12 13 13 15 15 15 15 15 15 15 16 17 17 17 16 16 15 14 13 13 12 12 12 12 12 12
12 11 11 11 11 12 12 12 12 11 11 11 11 12 12 12 13 14 15 15 15 16 17 16 15 15 15 16 17 18 18 18 16 15 15 14 14 14 13 13 13 13
12 11 11 11 11 11 12 12 11 10 11 12 12 12 13 14 14 15 16 16 16 17 17 17 16 16 15 15 16 17 18 18 17 15 15 14 14 14 14 14 13 14
10 10 11 11 11 12 12 12 10 10 13 15 16 15 15 16 16 16 17 17 18 18 18 17 17 16 15 15 16 17 17 18 17 17 16 15 15 14 14 14 14 14
9 10 11 11 11 11 10 9 10 14 15 14 14 15 16 18 18 17 17 18 18 18 18 18 17 17 16 16 16 16 17 17 17 17 17 16 16 15 15 14 14 15
10 10 10 10 10 9 8 11 15 18 17 15 14 16 17 19 21 20 19 19 19 19 19 18 18 17 17 16 17 17 17 17 17 16 17 16 16 15 15 14 14 15
12 10 9 10 9 10 14 18 19 19 19 18 17 17 17 18 19 19 20 21 21 20 20 19 19 18 17 17 17 17 17 17 17 17 17 17 17 16 16 15 15 16
13 11 9 11 13 15 17 17 16 16 19 19 17 17 18 18 18 18 18 20 21 22 21 20 20 20 19 18 18 17 17 17 18 18 18 18 18 18 17 17 17 17
14 12 11 14 16 18 18 18 16 16 17 18 16 16 16 17 18 18 17 18 20 21 21 20 20 20 20 19 19 18 18 18 18 18 18 18 18 19 18 17 17 17
13 12 13 16 17 17 17 17 17 16 17 15 13 13 13 14 16 17 18 18 18 18 19 20 20 20 20 20 20 19 19 18 18 19 19 19 18 19 18 17 17 16
11 12 15 18 18 17 14 13 14 15 15 13 10 10 11 12 13 16 18 18 17 16 16 18 21 21 21 21 20 20 19 19 19 19 19 19 19 19 18 18 17 17
12 15 18 19 19 16 12 11 11 10 10 10 10 9 9 9 11 13 16 17 17 16 15 17 21 22 21 21 21 20 19 19 18 18 18 19 19 19 18 18 18 19
12 16 16 15 14 12 10 9 8 8 9 9 9 8 9 9 10 12 14 15 15 15 15 16 17 18 17 18 20 21 19 18 18 18 18 18 19 19 20 20 21 21
11 12 11 10 9 8 8 8 7 8 9 9 8 8 8 9 10 11 12 12 13 14 16 16 16 16 16 15 16 19 20 19 18 18 17 17 17 18 19 21 22 21
8 7 8 9 9 8 8 7 7 8 8 8 8 9 9 10 11 12 11 11 12 13 15 16 17 19 20 19 17 18 18 18 18 17 16 16 15 14 15 17 20 21
7 7 9 11 11 9 7 8 8 8 8 9 9 9 10 11 12 13 12 12 13 14 14 14 16 18 20 21 20 19 18 19 19 18 16 16 17 16 16 18 20 21
6 7 8 7 5 5 6 8 9 9 8 8 9 10 10 10 11 13 13 13 13 13 13 12 13 14 15 16 17 17 17 18 20 19 17 17 18 18 19 20 20 20
7 8 9 8 7 7 8 9 9 8 8 8 8 9 10 10 10 11 11 12 12 11 11 10 10 12 13 13 14 14 14 15 16 17 16 16 17 17 17 17 17 17
6 8 9 10 10 10 10 9 8 8 8 8 8 9 9 9 9 9 10 10 10 10 10 9 10 12 13 15 16 15 13 12 13 15 15 15 16 16 15 15 15 14
6 6 7 8 9 9 9 8 8 8 8 8 8 8 8 7 7 7 8 9 10 10 10 10 10 12 14 15 15 14 13 11 11 12 13 14 14 14 14 15 14 13
6 6 7 7 7 7 7 7 6 6 6 6 6 5 5 6 6 7 7 7 8 8 8 8 9 11 11 9 9 10 11 9 9 10 12 13 13 13 13 13 13 12
6 6 6 6 6 6 5 5 5 5 5 5 5 5 5 5 6 6 6 5 5 4 5 5 6 7 7 6 6 7 9 9 8 10 12 12 11 12 13 13 12 12
Wind_Direction
206 209 212 217 223 225 225 221 220 222 222 224 225 224 223 224 228 231 227 221 214 211 211 211 213 215 218 220 219 224 229 228 229 228 226 232 238 242 245 247 251 258
199 202 208 216 221 221 224 225 224 226 226 228 231 231 228 225 227 228 226 221 216 214 215 216 219 220 220 220 215 219 226 227 230 231 229 232 237 244 248 250 251 252
200 200 207 217 221 220 221 223 223 227 230 229 232 235 235 230 227 225 223 222 221 220 218 220 222 222 222 221 216 218 222 223 228 234 234 232 235 244 250 252 254 252
208 206 209 217 223 225 224 221 218 221 226 230 232 232 233 235 233 227 220 221 225 225 223 222 223 223 223 222 221 223 224 225 230 234 237 236 236 243 250 253 257 256
217 215 214 217 222 226 225 223 219 218 223 228 231 231 229 230 235 231 224 221 223 226 227 224 223 224 225 223 224 226 227 229 233 233 235 239 239 242 246 250 254 256
212 215 217 218 219 223 226 227 224 223 228 230 228 230 227 228 233 235 232 228 225 225 227 226 224 225 225 224 224 226 229 232 235 233 231 235 241 243 245 246 250 253
205 208 214 217 218 221 225 228 230 228 230 232 230 226 223 227 232 235 235 234 232 229 228 226 225 226 226 225 224 225 228 231 234 233 231 234 240 243 245 246 248 252
204 209 214 215 215 219 218 220 231 234 228 231 235 232 229 230 231 233 237 237 234 232 231 229 226 224 225 226 226 225 226 229 231 231 231 234 239 242 244 245 248 251
198 208 215 214 213 218 214 203 211 223 224 225 232 235 235 236 234 233 238 240 238 236 233 232 229 226 224 226 227 227 228 231 233 232 231 233 237 240 240 243 246 249
194 203 210 212 209 203 203 206 210 219 225 224 226 231 232 233 231 230 232 235 237 238 235 233 232 230 227 227 227 228 229 231 232 233 234 233 235 238 239 241 243 246
193 197 201 205 200 190 199 211 214 217 224 224 223 227 228 226 225 226 229 228 229 233 233 231 232 232 231 230 230 230 230 231 232 233 234 234 236 238 240 243 246 248
196 198 199 201 202 202 207 214 212 213 218 219 221 227 228 226 223 224 229 228 227 230 231 229 229 230 232 232 232 233 232 231 232 233 234 237 239 240 241 243 247 250
202 204 206 209 210 212 215 218 220 219 218 217 221 229 230 227 225 227 230 231 231 233 233 231 229 227 229 230 231 234 234 233 234 235 237 239 241 243 243 244 245 247
206 203 205 213 218 219 217 219 223 225 225 223 224 228 228 227 229 232 234 236 238 237 236 236 234 231 229 228 228 231 234 235 235 237 239 242 243 243 243 245 246 246
205 202 205 214 220 221 219 219 224 227 229 231 231 228 229 232 234 236 238 240 241 240 240 240 240 238 233 230 228 229 232 236 237 239 241 243 245 246 246 247 248 249
200 205 209 215 220 222 222 223 226 225 224 227 229 230 234 235 234 235 237 239 239 239 240 241 242 242 239 236 234 231 232 236 239 241 244 246 248 250 251 251 253 256
200 208 211 215 221 225 229 230 227 219 215 218 222 226 231 232 232 233 234 236 236 237 240 242 243 242 240 239 238 235 236 240 244 245 246 247 250 252 255 259 263 264
203 209 210 214 223 232 237 235 226 216 215 215 216 221 225 224 225 226 228 230 231 234 238 241 243 243 241 239 237 237 240 246 251 252 252 252 253 254 256 260 264 266
199 205 209 207 211 221 227 226 223 219 217 218 217 219 218 218 220 223 223 224 226 231 235 238 241 243 241 239 239 242 244 247 251 255 258 259 258 258 259 260 264 268
185 199 219 217 208 206 209 215 220 218 217 218 218 219 218 217 221 225 226 225 225 228 232 234 239 244 244 242 244 247 248 248 249 251 254 257 257 260 265 266 267 268
171 186 214 226 222 217 217 220 221 217 215 217 216 219 221 221 223 227 229 229 228 230 234 236 240 248 249 245 243 245 247 247 247 246 247 252 255 258 262 263 263 264
173 175 182 189 198 209 214 216 216 212 211 213 212 214 217 219 222 226 228 231 233 234 238 242 248 253 256 255 252 250 248 247 246 246 247 250 253 255 258 260 261 262
185 177 176 180 186 194 200 204 206 204 204 207 208 212 214 217 222 225 228 234 237 237 239 245 253 258 259 261 259 252 246 245 247 248 250 252 256 258 261 264 265 264
191 181 177 177 180 186 191 195 201 203 204 207 209 213 219 221 225 231 236 239 240 243 245 244 250 257 261 262 258 246 237 239 246 250 255 258 261 263 266 270 270 269
181 175 173 173 176 181 184 189 197 200 202 207 209 214 221 222 224 227 231 237 240 243 245 245 250 257 261 265 260 242 234 239 247 252 258 262 266 270 272 274 276 276
155 155 162 164 160 159 163 169 174 176 181 188 191 198 208 213 219 224 225 233 243 245 248 257 267 268 271 285 280 249 235 239 247 257 265 271 280 284 283 282 283 282